| time (UTC) | temp F | wind direction | speed MPH | gust MPH | rain 1hr in | rain 24hr in | rain mn in | humidity % | barometer mb |
| 20260504021003 | 57 | 3 | 1.0 | 3.0 | 0.00 | 0.01 | 0.01 | 40 | 1003.1 |
| 20260504020003 | 58 | 353 | 2.0 | 3.0 | 0.00 | 0.01 | 0.01 | 42 | 1002.9 |
| 20260504015003 | 58 | 47 | 1.0 | 2.0 | 0.00 | 0.01 | 0.01 | 40 | 1002.7 |
| 20260504014004 | 60 | 10 | 2.0 | 3.0 | 0.00 | 0.01 | 0.01 | 38 | 1002.6 |
| 20260504013004 | 61 | 21 | 2.0 | 6.0 | 0.00 | 0.01 | 0.01 | 37 | 1002.5 |
| 20260504012004 | 61 | 38 | 2.0 | 5.0 | 0.00 | 0.01 | 0.01 | 36 | 1002.5 |
| 20260504011004 | 63 | 358 | 2.0 | 5.0 | 0.00 | 0.01 | 0.01 | 32 | 1002.3 |
| 20260504010004 | 64 | 353 | 2.0 | 7.0 | 0.00 | 0.01 | 0.01 | 29 | 1001.9 |
| 20260504005004 | 64 | 324 | 2.0 | 6.0 | 0.00 | 0.01 | 0.01 | 29 | 1001.7 |
| 20260504004003 | 65 | 23 | 1.0 | 12.0 | 0.00 | 0.01 | 0.01 | 29 | 1001.5 |
| 20260504003004 | 66 | 346 | 2.0 | 12.0 | 0.00 | 0.01 | 0.01 | 28 | 1001.4 |
| 20260504002004 | 67 | 357 | 5.0 | 12.0 | 0.00 | 0.01 | 0.01 | 27 | 1001.3 |
| 20260504000003 | 69 | 353 | 3.0 | 10.0 | 0.00 | 0.01 | 0.01 | 28 | 1001.0 |
| 20260503235004 | 70 | 311 | 5.0 | 15.0 | 0.00 | 0.01 | 0.01 | 27 | 1001.0 |
| 20260503234004 | 70 | 329 | 3.0 | 12.0 | 0.00 | 0.01 | 0.01 | 28 | 1000.7 |
| 20260503233004 | 71 | 337 | 4.0 | 10.0 | 0.00 | 0.01 | 0.01 | 28 | 1000.6 |
| 20260503232004 | 71 | 326 | 3.0 | 9.0 | 0.00 | 0.01 | 0.01 | 28 | 1000.5 |
| 20260503230004 | 70 | 290 | 7.0 | 12.0 | 0.00 | 0.01 | 0.01 | 33 | 1000.5 |
| 20260503224004 | 66 | 303 | 3.0 | 10.0 | 0.00 | 0.01 | 0.01 | 43 | 1000.8 |
| 20260503223004 | 66 | 238 | 2.0 | 5.0 | 0.00 | 0.01 | 0.01 | 42 | 1000.5 |
| 20260503222004 | 66 | 232 | 2.0 | 9.0 | 0.01 | 0.01 | 0.01 | 41 | 1000.6 |
| 20260503221004 | 67 | 282 | 3.0 | 9.0 | 0.01 | 0.01 | 0.01 | 41 | 1000.7 |
| 20260503220004 | 69 | 288 | 3.0 | 15.0 | 0.01 | 0.01 | 0.01 | 41 | 1000.7 |
| 20260503215004 | 67 | 337 | 5.0 | 10.0 | 0.01 | 0.01 | 0.01 | 44 | 1000.9 |
| 20260503214004 | 64 | 310 | 3.0 | 7.0 | 0.01 | 0.01 | 0.01 | 51 | 1001.0 |
| 20260503212003 | 64 | 237 | 5.0 | 12.0 | 0.00 | 0.00 | 0.00 | 43 | 1001.3 |
| 20260503211004 | 64 | 310 | 5.0 | 8.0 | 0.00 | 0.00 | 0.00 | 48 | 1001.4 |
| 20260503210005 | 64 | 294 | 2.0 | 13.0 | 0.00 | 0.00 | 0.00 | 51 | 1001.3 |
| 20260503205004 | 61 | 262 | 5.0 | 20.0 | 0.00 | 0.00 | 0.00 | 56 | 1001.7 |
| 20260503204005 | 67 | 286 | 7.0 | 15.0 | 0.00 | 0.00 | 0.00 | 38 | 1001.0 |
| 20260503203004 | 68 | 267 | 5.0 | 17.0 | 0.00 | 0.00 | 0.00 | 37 | 1001.1 |
| 20260503202003 | 68 | 248 | 5.0 | 15.0 | 0.00 | 0.00 | 0.00 | 38 | 1001.1 |
| 20260503201003 | 68 | 261 | 8.0 | 15.0 | 0.00 | 0.00 | 0.00 | 38 | 1001.1 |
| 20260503200003 | 68 | 280 | 3.0 | 16.0 | 0.00 | 0.00 | 0.00 | 38 | 1001.3 |
| 20260503195003 | 68 | 285 | 5.0 | 15.0 | 0.00 | 0.00 | 0.00 | 38 | 1001.5 |
| 20260503194003 | 70 | 247 | 4.0 | 15.0 | 0.00 | 0.00 | 0.00 | 37 | 1001.8 |
| 20260503192004 | 69 | 246 | 4.0 | 18.0 | 0.00 | 0.00 | 0.00 | 37 | 1001.9 |
| 20260503191004 | 69 | 305 | 8.0 | 15.0 | 0.00 | 0.00 | 0.00 | 36 | 1002.1 |
| 20260503185004 | 70 | 270 | 6.0 | 18.0 | 0.00 | 0.00 | 0.00 | 37 | 1002.3 |
| 20260503184003 | 69 | 288 | 3.0 | 15.0 | 0.00 | 0.00 | 0.00 | 38 | 1002.4 |
| 20260503182005 | 67 | 273 | 8.0 | 22.0 | 0.00 | 0.00 | 0.00 | 38 | 1002.9 |
| 20260503181004 | 67 | 302 | 6.0 | 15.0 | 0.00 | 0.00 | 0.00 | 39 | 1002.8 |
| 20260503180004 | 67 | 295 | 7.0 | 17.0 | 0.00 | 0.00 | 0.00 | 40 | 1002.9 |
| 20260503175004 | 67 | 286 | 5.0 | 13.0 | 0.00 | 0.00 | 0.00 | 40 | 1003.2 |
| 20260503174004 | 67 | 224 | 5.0 | 10.0 | 0.00 | 0.00 | 0.00 | 39 | 1003.2 |
| 20260503173003 | 65 | 221 | 3.0 | 16.0 | 0.00 | 0.00 | 0.00 | 41 | 1003.4 |
| 20260503172004 | 66 | 288 | 6.0 | 14.0 | 0.00 | 0.00 | 0.00 | 41 | 1003.7 |
| 20260503171003 | 66 | 241 | 6.0 | 15.0 | 0.00 | 0.00 | 0.00 | 40 | 1003.9 |
| 20260503151004 | 56 | 241 | 4.0 | 16.0 | 0.00 | 0.00 | 0.00 | 56 | 1005.5 |
| 20260503131004 | 49 | 243 | 2.0 | 6.0 | 0.00 | 0.00 | 0.00 | 76 | 1006.9 |
| 20260503081003 | 43 | 332 | 2.0 | 3.0 | 0.00 | 0.00 | 0.00 | 68 | 1008.3 |
| 20260503055004 | 35 | 67 | 0.0 | 2.0 | 0.00 | 0.00 | 0.00 | 90 | 1009.7 |
| 20260503054003 | 34 | 343 | 1.0 | 2.0 | 0.00 | 0.00 | 0.00 | 90 | 1009.7 |
| 20260503053004 | 34 | 5 | 1.0 | 2.0 | 0.00 | 0.00 | 0.00 | 91 | 1010.0 |
| 20260503052004 | 34 | 0 | 1.0 | 1.0 | 0.00 | 0.00 | 0.00 | 90 | 1009.9 |
| 20260503051004 | 34 | 22 | 0.0 | 2.0 | 0.00 | 0.00 | 0.00 | 90 | 1010.0 |
| 20260503050004 | 34 | 29 | 1.0 | 2.0 | 0.00 | 0.00 | 0.00 | 89 | 1009.9 |
| 20260503045004 | 35 | 55 | 0.0 | 3.0 | 0.00 | 0.00 | 0.00 | 89 | 1010.2 |
| 20260503044004 | 35 | 155 | 0.0 | 2.0 | 0.00 | 0.00 | 0.00 | 88 | 1010.2 |
| 20260503043004 | 35 | 38 | 2.0 | 2.0 | 0.00 | 0.00 | 0.00 | 88 | 1010.5 |
| 20260503042004 | 36 | 358 | 1.0 | 5.0 | 0.00 | 0.00 | 0.00 | 87 | 1010.4 |
| 20260503041003 | 36 | 67 | 0.0 | 2.0 | 0.00 | 0.00 | 0.00 | 86 | 1010.4 |
| 20260503040003 | 37 | 53 | 2.0 | 3.0 | 0.00 | 0.00 | 0.00 | 85 | 1010.4 |
| 20260503035004 | 38 | 302 | 1.0 | 1.0 | 0.00 | 0.00 | 0.00 | 83 | 1010.5 |
| 20260503034004 | 38 | 357 | 0.0 | 1.0 | 0.00 | 0.00 | 0.00 | 83 | 1010.4 |
| 20260503033004 | 39 | 37 | 0.0 | 1.0 | 0.00 | 0.00 | 0.00 | 81 | 1010.7 |
| 20260503032005 | 40 | 52 | 0.0 | 2.0 | 0.00 | 0.00 | 0.00 | 79 | 1010.7 |
| 20260503030003 | 41 | 12 | 0.0 | 2.0 | 0.00 | 0.00 | 0.00 | 76 | 1010.9 |
| 20260503025003 | 42 | 63 | 1.0 | 2.0 | 0.00 | 0.00 | 0.00 | 75 | 1011.0 |
| 20260503023004 | 43 | 38 | 1.0 | 2.0 | 0.00 | 0.00 | 0.00 | 72 | 1011.1 |
| 20260503022003 | 43 | 92 | 1.0 | 3.0 | 0.00 | 0.00 | 0.00 | 71 | 1011.1 |